timestamp,surface_pressure_avg,surface_temp_avg,battery_voltage,lat,long
2020-10-31 00:09:01+00:00,368.8113,9.68,12.65,47.84626,-54.09684
2020-10-31 00:19:01+00:00,364.8146,9.79,12.65,47.84626,-54.09684
2020-10-31 00:29:01+00:00,354.9662,9.6,12.65,47.84626,-54.09684
2020-10-31 00:39:01+00:00,339.5963,9.6,12.65,47.84626,-54.09684
2020-10-31 00:49:01+00:00,333.333,9.7,12.65,47.84626,-54.09684
2020-10-31 00:59:01+00:00,341.3563,9.8,12.65,47.84626,-54.09684
2020-10-31 01:09:01+00:00,351.2078,9.79,12.65,47.84626,-54.09684
2020-10-31 01:19:01+00:00,351.3845,9.5,12.65,47.84626,-54.09684
2020-10-31 01:29:01+00:00,336.9329,9.4,12.65,47.84626,-54.09684
2020-10-31 01:39:01+00:00,328.4047,9.4,12.65,47.84626,-54.09684
2020-10-31 01:49:01+00:00,316.1896,9.5,12.65,47.84626,-54.09684
2020-10-31 01:59:01+00:00,303.4163,9.5,12.65,47.84626,-54.09684
2020-10-31 02:09:01+00:00,291.8181,9.5,12.65,47.84626,-54.09684
2020-10-31 02:19:01+00:00,288.6298,9.5,12.65,47.84626,-54.09684
2020-10-31 02:29:01+00:00,287.233,9.4,12.65,47.84626,-54.09684
2020-10-31 02:39:01+00:00,279.603,9.3,12.65,47.84626,-54.09684
2020-10-31 02:49:01+00:00,269.1431,9.22,12.65,47.84626,-54.09684
2020-10-31 02:59:01+00:00,261.6981,9.26,12.65,47.84626,-54.09684
2020-10-31 03:09:01+00:00,261.5847,9.29,12.65,47.84626,-54.09684
2020-10-31 03:19:01+00:00,255.8331,9.29,12.65,47.84626,-54.09684
2020-10-31 03:29:01+00:00,250.1181,9.29,12.65,47.84626,-54.09684
2020-10-31 03:39:01+00:00,235.4198,9.25,12.65,47.84626,-54.09684
2020-10-31 03:49:01+00:00,223.1665,9.24,12.65,47.84626,-54.09684
2020-10-31 03:59:01+00:00,212.2748,9.24,12.65,47.84626,-54.09684
2020-10-31 04:09:01+00:00,206.5531,9.2,12.65,47.84626,-54.09684
2020-10-31 04:19:01+00:00,207.7998,9.2,12.65,47.84626,-54.09684
2020-10-31 04:29:01+00:00,203.5598,9.2,12.65,47.84626,-54.09684
2020-10-31 04:39:01+00:00,206.6898,9.16,12.65,47.84626,-54.09684
2020-10-31 04:49:01+00:00,221.2264,9.12,12.65,47.84626,-54.09684
2020-10-31 04:59:01+00:00,219.8298,9.1,12.65,47.84626,-54.09684
2020-10-31 05:09:01+00:00,212.2598,9.1,12.65,47.84626,-54.09684
2020-10-31 05:19:01+00:00,212.1614,9.1,12.65,47.84626,-54.09684
2020-10-31 05:29:01+00:00,215.9781,9.1,12.65,47.84626,-54.09684
2020-10-31 05:39:01+00:00,211.5315,9.1,12.65,47.84626,-54.09684
2020-10-31 05:49:01+00:00,217.3148,9.1,12.65,47.84626,-54.09684
2020-10-31 05:59:01+00:00,232.6181,9.1,12.65,47.84626,-54.09684
2020-10-31 06:09:01+00:00,243.2531,9.1,12.65,47.84626,-54.09684
2020-10-31 06:19:01+00:00,246.0131,9.1,12.65,47.84626,-54.09684
2020-10-31 06:29:01+00:00,241.7281,9.1,12.65,47.84626,-54.09684
2020-10-31 06:39:01+00:00,243.0548,9.14,12.65,47.84626,-54.09684
2020-10-31 06:49:01+00:00,255.1331,9.15,12.65,47.84626,-54.09684
2020-10-31 06:59:01+00:00,267.3631,9.3,12.65,47.84626,-54.09684
2020-10-31 07:09:01+00:00,272.2798,9.3,12.65,47.84626,-54.09684
2020-10-31 07:19:01+00:00,271.0747,9.3,12.65,47.84626,-54.09684
2020-10-31 07:29:01+00:00,265.3831,9.3,12.65,47.84626,-54.09684
2020-10-31 07:39:01+00:00,262.8797,9.2,12.65,47.84626,-54.09684
2020-10-31 07:49:01+00:00,276.2964,9.15,12.65,47.84626,-54.09684
2020-10-31 07:59:01+00:00,285.438,9.3,12.65,47.84626,-54.09684
2020-10-31 08:09:01+00:00,292.828,9.3,12.65,47.84626,-54.09684
2020-10-31 08:19:01+00:00,290.753,9.3,12.65,47.84626,-54.09684
2020-10-31 08:29:01+00:00,286.2264,9.0,12.65,47.84626,-54.09684
2020-10-31 08:39:01+00:00,285.3897,9.0,12.65,47.84626,-54.09684
2020-10-31 08:49:01+00:00,293.4582,9.08,12.65,47.84626,-54.09684
2020-10-31 08:59:01+00:00,294.3964,9.1,12.65,47.84626,-54.09684
2020-10-31 09:09:01+00:00,297.5081,9.2,12.65,47.84626,-54.09684
2020-10-31 09:19:01+00:00,298.9131,9.3,12.65,47.84626,-54.09684
2020-10-31 09:29:01+00:00,307.533,9.37,12.65,47.84626,-54.09684
2020-10-31 09:39:01+00:00,315.7397,9.4,12.65,47.84626,-54.09684
2020-10-31 09:49:01+00:00,315.3297,9.42,12.65,47.84626,-54.09684
2020-10-31 09:59:01+00:00,313.0814,9.49,12.65,47.84626,-54.09684
2020-10-31 10:09:01+00:00,331.2313,9.5,12.65,47.84626,-54.09684
2020-10-31 10:19:01+00:00,352.2979,9.5,12.57,47.84626,-54.09684
2020-10-31 10:29:01+00:00,349.68300000000005,9.5,12.57,47.84626,-54.09684
2020-10-31 10:39:01+00:00,351.0996,9.5,12.57,47.84626,-54.09684
2020-10-31 10:49:01+00:00,366.5079,9.5,12.57,47.84626,-54.09684
2020-10-31 10:59:01+00:00,378.8094,9.5,12.57,47.84626,-54.09684
2020-10-31 11:09:01+00:00,376.4597,9.5,12.57,47.84626,-54.09684
2020-10-31 11:19:01+00:00,370.9663,9.4,12.65,47.84626,-54.09684
2020-10-31 11:29:01+00:00,372.2263,9.4,12.65,47.84626,-54.09684
2020-10-31 11:39:01+00:00,376.3762,9.44,12.65,47.84626,-54.09684
2020-10-31 11:49:01+00:00,373.3228,9.49,12.65,47.84626,-54.09684
2020-10-31 11:59:01+00:00,366.8663,9.5,12.65,47.84626,-54.09684
2020-10-31 12:09:01+00:00,370.5763,9.46,12.65,47.84626,-54.09684
2020-10-31 12:19:01+00:00,380.2079,9.43,13.05,47.84626,-54.09684
2020-10-31 12:29:01+00:00,375.2629,9.4,13.05,47.84626,-54.09684
2020-10-31 12:39:01+00:00,355.673,9.2,13.05,47.84626,-54.09684
2020-10-31 12:49:01+00:00,358.0796,9.2,13.05,47.84626,-54.09684
2020-10-31 12:59:01+00:00,370.1495,9.3,13.05,47.84626,-54.09684
2020-10-31 13:09:01+00:00,352.8597,9.3,13.05,47.84626,-54.09684
2020-10-31 13:19:01+00:00,338.5646,9.2,14.48,47.84626,-54.09684
2020-10-31 13:29:01+00:00,347.5396,9.2,14.48,47.84626,-54.09684
2020-10-31 13:39:01+00:00,343.0997,9.2,14.48,47.84626,-54.09684
2020-10-31 13:49:01+00:00,325.8914,9.2,14.48,47.84626,-54.09684
2020-10-31 13:59:01+00:00,326.0547,9.19,14.48,47.84626,-54.09684
2020-10-31 14:09:01+00:00,328.2812,9.2,14.48,47.84626,-54.09684
2020-10-31 14:19:01+00:00,312.1063,9.2,14.24,47.84626,-54.09684
2020-10-31 14:29:01+00:00,301.7347,9.17,14.24,47.84626,-54.09684
2020-10-31 14:39:01+00:00,303.9413,9.2,14.24,47.84626,-54.09684
2020-10-31 14:49:01+00:00,294.343,9.2,14.24,47.84626,-54.09684
2020-10-31 14:59:01+00:00,266.9965,9.2,14.24,47.84626,-54.09684
2020-10-31 15:09:01+00:00,261.4297,9.2,14.24,47.84626,-54.09684
2020-10-31 15:19:01+00:00,257.3731,9.21,14.56,47.84626,-54.09684
2020-10-31 15:29:01+00:00,236.2465,9.2,14.56,47.84626,-54.09684
2020-10-31 15:39:01+00:00,226.1064,9.2,14.56,47.84626,-54.09684
2020-10-31 15:49:01+00:00,237.0731,9.3,14.56,47.84626,-54.09684
2020-10-31 15:59:01+00:00,230.6431,9.3,14.56,47.84626,-54.09684
2020-10-31 16:09:01+00:00,211.6047,9.3,14.56,47.84626,-54.09684
2020-10-31 16:19:01+00:00,209.0965,9.3,14.4,47.84626,-54.09684
2020-10-31 16:29:01+00:00,209.5381,9.36,14.4,47.84626,-54.09684
2020-10-31 16:39:01+00:00,194.1348,9.38,14.4,47.84626,-54.09684
2020-10-31 16:49:01+00:00,180.1498,9.34,14.4,47.84626,-54.09684
2020-10-31 16:59:01+00:00,183.2548,9.36,14.4,47.84626,-54.09684
2020-10-31 17:09:01+00:00,188.9698,9.38,14.4,47.84626,-54.09684
2020-10-31 17:19:01+00:00,182.3331,9.39,14.32,47.84626,-54.09684
2020-10-31 17:29:01+00:00,175.1432,9.31,14.32,47.84626,-54.09684
2020-10-31 17:39:01+00:00,175.8298,9.3,14.32,47.84626,-54.09684
2020-10-31 17:49:01+00:00,177.4881,9.3,14.32,47.84626,-54.09684
2020-10-31 17:59:01+00:00,181.9248,9.3,14.32,47.84626,-54.09684
2020-10-31 18:09:01+00:00,186.2615,9.3,14.32,47.84626,-54.09684
2020-10-31 18:19:01+00:00,184.7547,9.33,14.24,47.84626,-54.09684
2020-10-31 18:29:01+00:00,184.7331,9.35,14.24,47.84626,-54.09684
2020-10-31 18:39:01+00:00,194.6515,9.34,14.24,47.84626,-54.09684
2020-10-31 18:49:01+00:00,201.5331,9.3,14.24,47.84626,-54.09684
2020-10-31 18:59:01+00:00,192.6948,9.3,14.24,47.84626,-54.09684
2020-10-31 19:09:01+00:00,194.7281,9.3,14.24,47.84626,-54.09684
2020-10-31 19:19:01+00:00,218.3864,9.3,13.84,47.84626,-54.09684
2020-10-31 19:29:01+00:00,223.3697,9.3,13.84,47.84626,-54.09684
2020-10-31 19:39:01+00:00,208.4098,9.3,13.84,47.84626,-54.09684
2020-10-31 19:49:01+00:00,210.5698,9.3,13.84,47.84626,-54.09684
2020-10-31 19:59:01+00:00,232.6831,9.3,13.84,47.84626,-54.09684
2020-10-31 20:09:01+00:00,235.9531,9.3,13.84,47.84626,-54.09684
2020-10-31 20:19:01+00:00,226.4348,9.3,13.6,47.84626,-54.09684
2020-10-31 20:29:01+00:00,237.4531,9.3,13.6,47.84626,-54.09684
2020-10-31 20:39:01+00:00,260.3097,9.3,13.6,47.84626,-54.09684
2020-10-31 20:49:01+00:00,259.2897,9.3,13.6,47.84626,-54.09684
2020-10-31 20:59:01+00:00,252.0298,9.3,13.6,47.84626,-54.09684
2020-10-31 21:09:01+00:00,259.2564,9.3,13.6,47.84626,-54.09684
2020-10-31 21:19:01+00:00,272.8381,9.4,13.21,47.84626,-54.09684
2020-10-31 21:29:01+00:00,267.2164,9.5,13.21,47.84626,-54.09684
2020-10-31 21:39:01+00:00,265.0481,9.48,13.21,47.84626,-54.09684
2020-10-31 21:49:01+00:00,282.5197,9.4,13.21,47.84626,-54.09684
2020-10-31 21:59:01+00:00,302.8814,9.3,13.21,47.84626,-54.09684
2020-10-31 22:09:01+00:00,302.288,9.4,13.21,47.84626,-54.09684
2020-10-31 22:19:01+00:00,304.428,9.4,12.81,47.84626,-54.09684
2020-10-31 22:29:01+00:00,319.5013,9.3,12.81,47.84626,-54.09684
2020-10-31 22:39:01+00:00,333.1879,9.3,12.81,47.84626,-54.09684
2020-10-31 22:49:01+00:00,323.7846,9.3,12.81,47.84626,-54.09684
2020-10-31 22:59:01+00:00,325.8279,9.3,12.81,47.84626,-54.09684
2020-10-31 23:09:01+00:00,340.8246,9.3,12.81,47.84626,-54.09684
2020-10-31 23:19:01+00:00,343.0696,9.1,12.65,47.84626,-54.09684
2020-10-31 23:29:01+00:00,324.7213,9.16,12.65,47.84626,-54.09684
2020-10-31 23:39:01+00:00,331.2897,9.2,12.65,47.84626,-54.09684
2020-10-31 23:49:01+00:00,343.9763,9.21,12.65,47.84626,-54.09684
2020-10-31 23:59:01+00:00,339.1396,9.2,12.65,47.84626,-54.09684
